View from above orbital plane
|
View from above satellite
|
Ground track
|
The orbit data is extracted from the following two-line orbital elements,
1 10677U 78019B 21102.49751489 .00000053 00000-0 25120-4 0 9991
2 10677 74.0376 243.1853 0015794 330.9361 29.0913 14.40175269263078
Epoch (UTC): | 12 April 2021 11:56:25 |
Eccentricity: | 0.0015794 |
inclination: | 74.0376° |
perigee height: | 746 km |
apogee height: | 769 km |
right ascension of ascending node: | 243.1853° |
argument of perigee: | 330.9361° |
revolutions per day: | 14.40175269 |
mean anomaly at epoch: | 29.0913° |
orbit number at epoch: | 26307 |
The dashed part of the orbit path shows where the satellite is in the earth's shadow,
|
|